Погода в Обходе

Россия / Нижегородская область     57°34′05″N   46°13′21″E
В апреле 2022 года жителям России запретили посещать сайт meteo.paraplan.net по решению Генеральной прокуратуры. Аудитория сайта уменьшилась в 10 раз. Владельцы сайта не видят смысла в поддержке погодного сервера в таких условиях. Сайт будет закрыт в октябре.
темп.,
°C
ветер,
м/с
пор.,
м/с
влажн.,
%
обл.,
%
осадки,
мм/ч
давл.,
гПа
погр.,
м
4 октября, вт
вт400:00+13ю51176100 0.0 1015807
03:00+11ююв41081100 0.0 1017565
06:00+9ююв41088100 0.0 1018421
09:00+11ююв5879100 0.0 1019706
12:00+12ююв5877100 0.0 1020684
15:00+13ююв5875100 0.0 10201015
18:00+11ююв51182100 0.0 1020574
21:00+8юв41273100 0.0 1020372
5 октября, ср
ср500:00+9юв41367100 0.0 1019497
03:00+9ююв51190100 0.6 1018619
06:00+9ююв51194100 0.8 1017619
09:00+8ююв51292100 1.0 1017621
12:00+10ююв51089100 0.0 1016729
15:00+10ююв4990100 0.3 1016770
18:00+10ююв4995100 1.3 1016492
21:00+10ю2690100 3.6 1014234
6 октября, чт
чт600:00+9ю4891100 0.7 1013535
03:00+8ю2790100 1.0 1013439
06:00+8ююз2593100 0.3 1012345
09:00+7зюз2489100 0.3 1012387
12:00+8зюз3490100 0.1 1013452
15:00+8зюз359093 0.2 1013395
18:00+7зюз2694100 0.1 1015247
21:00+8з379361 0.1 1015301
7 октября, пт
пт700:00+5зюз39945 0.0 1015212
03:00+4ююз310945 0.0 1014264
06:00+5ююз41288100 0.1 1012414
09:00+6юз51291100 0.1 1011606
12:00+8зюз51194100 0.6 1012762
15:00+10з5118277 0.6 1012844
18:00+9з51388100 0.2 1014732
21:00+9з6138389 0.4 10151150
8 октября, сб
сб800:00+9з6128495 0.1 10171133
03:00+8з512835 0.1 1018594
06:00+6з4109635 0.0 1020416
09:00+8з478754 0.0 1021445
12:00+12зюз577154 0.0 1021965
15:00+12зюз486952 0.0 10201092
18:00+9юз3108811 0.0 1020248
21:00+8юз4119136 0.0 1020320